Air Quality Table

TIMESTAMP NO2 SO2 O3 PM10 PM2.5 CO TEMP HUM AIRPRES WS WD NO BENZENE
2022-08-10 21:00 22.8 µg/m3 0.26 µg/m3 56.41 µg/m3 26.64 µg/m3 13.95 µg/m3 0 mg/m3 28.47 °C 66.8 % 1,013.30 mbar 0.87 m/s 245.32 Deg 1.47 µg/m3 0.68 µg/m3
2022-08-10 20:00 33.02 µg/m3 0.34 µg/m3 47.8 µg/m3 27.26 µg/m3 12.89 µg/m3 0 mg/m3 28.98 °C 58.67 % 1,013.18 mbar 1.02 m/s 270.9 Deg 5.24 µg/m3 0.79 µg/m3
2022-08-10 19:00 35.42 µg/m3 0.54 µg/m3 51.36 µg/m3 27.49 µg/m3 11.85 µg/m3 0 mg/m3 29.71 °C 55.24 % 1,013.05 mbar 1.67 m/s 274.68 Deg 7.65 µg/m3 3.25 µg/m3
2022-08-10 18:00 28.38 µg/m3 0.42 µg/m3 56.46 µg/m3 30.59 µg/m3 11.96 µg/m3 0 mg/m3 30.01 °C 61.26 % 1,012.84 mbar 1.67 m/s 322.28 Deg 11.68 µg/m3 0.47 µg/m3
2022-08-10 17:00 18.63 µg/m3 0.29 µg/m3 62.46 µg/m3 25.03 µg/m3 10.05 µg/m3 0 mg/m3 30.45 °C 56.67 % 1,012.97 mbar 1.51 m/s 213.25 Deg 6.79 µg/m3 0.47 µg/m3
2022-08-10 16:00 21.87 µg/m3 0.38 µg/m3 60.28 µg/m3 36.65 µg/m3 14.64 µg/m3 0 mg/m3 30.51 °C 55.19 % 1,013.00 mbar 1.88 m/s 185.05 Deg 13.65 µg/m3 0.58 µg/m3
2022-08-10 15:00 27.06 µg/m3 0.4 µg/m3 56.59 µg/m3 28.75 µg/m3 11.9 µg/m3 0 mg/m3 30.11 °C 60.16 % 1,013.11 mbar 1.76 m/s 196.8 Deg 18.78 µg/m3 1.26 µg/m3
2022-08-10 14:00 32.17 µg/m3 0.58 µg/m3 53.29 µg/m3 30.09 µg/m3 16.24 µg/m3 0 mg/m3 28.22 °C 72.36 % 1,013.77 mbar 1.99 m/s 39.58 Deg 31.3 µg/m3 0.84 µg/m3
2022-08-10 13:00 26.15 µg/m3 0.41 µg/m3 71.13 µg/m3 22.11 µg/m3 14.72 µg/m3 0 mg/m3 28.74 °C 71.19 % 1,013.96 mbar 4.88 m/s 53.75 Deg 23.15 µg/m3 1 µg/m3
2022-08-10 12:00 17.23 µg/m3 0.5 µg/m3 71.34 µg/m3 23.39 µg/m3 13.36 µg/m3 0 mg/m3 28.85 °C 69.75 % 1,014.12 mbar 4.46 m/s 50.12 Deg 28.19 µg/m3 1.05 µg/m3
2022-08-10 11:00 19.03 µg/m3 0.52 µg/m3 62.6 µg/m3 19.66 µg/m3 11.47 µg/m3 0 mg/m3 29.2 °C 67.27 % 1,014.19 mbar 3.59 m/s 57.83 Deg 34.67 µg/m3 0.94 µg/m3
2022-08-10 10:00 24.81 µg/m3 0.48 µg/m3 67.77 µg/m3 19.11 µg/m3 11.79 µg/m3 0 mg/m3 28.61 °C 70.03 % 1,014.11 mbar 3.96 m/s 51.85 Deg 25.79 µg/m3 1.26 µg/m3
2022-08-10 09:00 42.58 µg/m3 0.61 µg/m3 52.82 µg/m3 31.91 µg/m3 15.52 µg/m3 0.46 mg/m3 28.91 °C 67.18 % 1,014.00 mbar 2.16 m/s 119.2 Deg 37.2 µg/m3 1.05 µg/m3
2022-08-10 08:00 32.24 µg/m3 0.34 µg/m3 54.14 µg/m3 48.21 µg/m3 16.4 µg/m3 0.34 mg/m3 28.85 °C 68.5 % 1,013.86 mbar 0.92 m/s 171.92 Deg 15.27 µg/m3 0.84 µg/m3
2022-08-10 07:00 27.31 µg/m3 0.3 µg/m3 55.36 µg/m3 28.76 µg/m3 17.06 µg/m3 0.27 mg/m3 27.77 °C 75.3 % 1,013.64 mbar 1.11 m/s 207.2 Deg 5.45 µg/m3 0.79 µg/m3
2022-08-10 06:00 27.93 µg/m3 0.32 µg/m3 45.7 µg/m3 29.89 µg/m3 20.96 µg/m3 0.26 mg/m3 27.39 °C 79.37 % 1,013.38 mbar 1.09 m/s 209.62 Deg 2.8 µg/m3 0.52 µg/m3
2022-08-10 05:00 11.9 µg/m3 0.2 µg/m3 57.55 µg/m3 22.52 µg/m3 16.55 µg/m3 0.17 mg/m3 27.4 °C 80.68 % 1,013.00 mbar 0.83 m/s 195.37 Deg 0.86 µg/m3 0.47 µg/m3
2022-08-10 04:00 9.2 µg/m3 0.24 µg/m3 52.67 µg/m3 23.58 µg/m3 17.57 µg/m3 0.18 mg/m3 27.6 °C 78.68 % 1,013.04 mbar 0.88 m/s 181.22 Deg 0.74 µg/m3 0.47 µg/m3
2022-08-10 03:00 15.09 µg/m3 0.08 µg/m3 44.26 µg/m3 23.52 µg/m3 17.41 µg/m3 0.2 mg/m3 27.83 °C 76.45 % 1,013.19 mbar 0.77 m/s 183.1 Deg 0.9 µg/m3 0.52 µg/m3
2022-08-10 02:00 15.84 µg/m3 0.14 µg/m3 47.32 µg/m3 22.55 µg/m3 16.26 µg/m3 0.18 mg/m3 28.08 °C 74.33 % 1,013.35 mbar 0.87 m/s 193.28 Deg 0.12 µg/m3 0.52 µg/m3
2022-08-10 01:00 12.37 µg/m3 0.14 µg/m3 58 µg/m3 18.82 µg/m3 13.46 µg/m3 0.2 mg/m3 28.37 °C 73.27 % 1,013.60 mbar 0.66 m/s 206.22 Deg 0.18 µg/m3 0.52 µg/m3
2022-08-10 00:00 15.46 µg/m3 0.23 µg/m3 58.96 µg/m3 16.37 µg/m3 11.8 µg/m3 0.24 mg/m3 28.42 °C 75.35 % 1,014.01 mbar 0.78 m/s 148.22 Deg 6.76 µg/m3 1 µg/m3
2022-08-09 23:00 16.2 µg/m3 0.24 µg/m3 62.59 µg/m3 16.36 µg/m3 11.95 µg/m3 0.29 mg/m3 28.47 °C 75.05 % 1,014.10 mbar 1.09 m/s 43.18 Deg 10.53 µg/m3 0.84 µg/m3

It is to be noted that the data is provisional and subject to quality assurance procedures. For validated data kindly refer your request to contact.air@era.org.mt